PRAETORIAN SDA_619

Last updated on Fri Jul 10 2026 00:03:45 GMT+0000 (Coordinated Universal Time)

1 65582U 25203T 26189.92223957 .00000164 00000+0 13721-3 0 9990 2 65582 81.3049 350.6706 0009126 129.6096 230.5867 13.83805987 42336
UTC large
Height (km)
Speed (km/s)
/
Latitude / Longitude
Inclination (degrees)
Orbital Period (minutes)
Azimuth
Elevation
Range (km)
Doppler Factor

Next 0 passes for location: London (51.5072 / 0.1276)

No passes found over London.
PRAETORIAN SDA_619